Saint Simons Island, GA

4:45 PM EST on December 07, 2019 (GMT -0500)
McKinnon

Weather History for KSSI - October, 2019

Change the Weather History Date:

Thursday, October 10, 2019

  Actual Average Record
Temperature  
Mean Temperature 75 °F 72 °F  
Max Temperature 79 °F 79 °F 93 °F (1982)
Min Temperature 70 °F 65 °F 45 °F (2000)
Degree Days  
Heating Degree Days 0 0  
Month to date heating degree days 0 0  
Since 1 July heating degree days 0 0  
Cooling Degree Days 10 7  
Month to date cooling degree days 149 86  
Year to date cooling degree days 3136 2457  
Growing Degree Days 24 (Base 50)    
Moisture  
Dew Point 64 °F    
Average Humidity 74    
Maximum Humidity 90    
Minimum Humidity 58    
Precipitation  
Precipitation 0.00 in 0.17 in 3.05 in (1989)
Month to date precipitation 0.41 1.83  
Year to date precipitation 27.51 37.70  
Snow  
Snow 0.00 in - 0.00 in ()
Month to date snowfall 0.0  
Since 1 July snowfall 0.0  
Since 1 September snowfall 0.0  
Snow Depth 0.00 in    
Sea Level Pressure  
Sea Level Pressure 30.08 in    
Wind  
Wind Speed 12 mph (NNE)    
Max Wind Speed 22 mph    
Max Gust Speed 30 mph    
Visibility 10 miles    
Events      
T = Trace of Precipitation, MM = Missing Value Source: NWS Daily Summary

Daily Weather History Graph

Daily Weather History Graph

Search for Another Location

Airport or City:

Astronomy

Oct. 10, 2019 Rise Set
Actual Time 7:24 AM EDT 6:59 PM EDT
Civil Twilight 7:00 AM EDT 7:24 PM EDT
Nautical Twilight 6:32 AM EDT 7:52 PM EDT
Astronomical Twilight 6:04 AM EDT 8:20 PM EDT
Moon 5:44 PM EDT (10/10) 4:25 AM EDT (10/10)
Length of Visible Light 12h 23m
Length of Day
11h 35m
Waxing Gibbous, 91% of the Moon is Illuminated
Oct 10
Waxing Gibbous
Oct 13
Full
Oct 21
Last Quarter
Oct 27
New
Nov 4
First Quarter

Hourly Weather History & Observations

Time (EDT) Temp. Dew Point Humidity Pressure Visibility Wind Dir Wind Speed Gust Speed Precip Events Conditions
12:53 AM 73.0 °F 66.0 °F 79% 30.07 in 10.0 mi NNE 6.9 mph - N/A   Scattered Clouds
1:41 AM 72.0 °F 66.0 °F 81% 30.06 in 10.0 mi North 8.1 mph - N/A   Overcast
1:53 AM 72.0 °F 64.9 °F 78% 30.07 in 10.0 mi North 6.9 mph - N/A   Overcast
2:00 AM 72.0 °F 64.9 °F 78% 30.06 in 10.0 mi North 9.2 mph - N/A   Overcast
2:23 AM 72.0 °F 64.9 °F 78% 30.06 in 10.0 mi North 6.9 mph - N/A   Overcast
2:40 AM 71.1 °F 64.9 °F 81% 30.06 in 10.0 mi North 10.4 mph - N/A   Scattered Clouds
2:53 AM 72.0 °F 64.9 °F 78% 30.06 in 10.0 mi North 8.1 mph - N/A   Mostly Cloudy
3:53 AM 71.1 °F 64.9 °F 81% 30.06 in 10.0 mi North 9.2 mph - N/A   Overcast
4:53 AM 71.1 °F 64.9 °F 81% 30.05 in 10.0 mi North 8.1 mph - N/A   Mostly Cloudy
5:39 AM 70.0 °F 64.9 °F 84% 30.05 in 10.0 mi North 6.9 mph - N/A   Mostly Cloudy
5:48 AM 69.8 °F 64.4 °F 83% 30.06 in 10.0 mi North 8.1 mph - N/A   Scattered Clouds
5:53 AM 70.0 °F 64.9 °F 84% 30.06 in 10.0 mi North 8.1 mph - N/A   Scattered Clouds
6:53 AM 70.0 °F 66.0 °F 87% 30.07 in 10.0 mi North 8.1 mph - N/A   Partly Cloudy
7:44 AM 73.9 °F 66.0 °F 76% 30.08 in 10.0 mi NNE 13.8 mph 21.9 mph N/A   Mostly Cloudy
7:53 AM 73.9 °F 66.0 °F 76% 30.09 in 10.0 mi NNE 13.8 mph - N/A   Mostly Cloudy
8:53 AM 75.9 °F 64.9 °F 69% 30.10 in 10.0 mi NNE 11.5 mph 24.2 mph N/A   Clear
9:40 AM 75.9 °F 66.0 °F 71% 30.10 in 10.0 mi NE 15.0 mph 23.0 mph N/A   Mostly Cloudy
9:53 AM 75.9 °F 66.9 °F 74% 30.11 in 10.0 mi NNE 13.8 mph 25.3 mph N/A   Mostly Cloudy
10:53 AM 78.1 °F 66.9 °F 68% 30.12 in 10.0 mi NNE 16.1 mph - N/A   Mostly Cloudy
11:53 AM 77.0 °F 66.0 °F 69% 30.13 in 10.0 mi NNE 18.4 mph 25.3 mph N/A   Overcast
12:32 PM 78.1 °F 66.0 °F 66% 30.12 in 10.0 mi NNE 19.6 mph 29.9 mph N/A   Mostly Cloudy
12:53 PM 77.0 °F 66.0 °F 69% 30.12 in 10.0 mi NE 16.1 mph 27.6 mph N/A   Mostly Cloudy
1:53 PM 78.1 °F 64.0 °F 62% 30.09 in 10.0 mi NE 17.3 mph 24.2 mph N/A   Mostly Cloudy
2:16 PM 78.1 °F 64.0 °F 62% 30.08 in 10.0 mi NNE 13.8 mph - N/A   Scattered Clouds
2:30 PM 78.1 °F 64.0 °F 62% 30.08 in 10.0 mi NNE 17.3 mph 25.3 mph N/A   Mostly Cloudy
2:53 PM 78.1 °F 64.0 °F 62% 30.08 in 10.0 mi NE 13.8 mph - N/A   Mostly Cloudy
3:05 PM 79.0 °F 64.0 °F 60% 30.07 in 10.0 mi NE 17.3 mph 23.0 mph N/A   Scattered Clouds
3:53 PM 78.1 °F 62.1 °F 58% 30.07 in 10.0 mi NE 16.1 mph 21.9 mph N/A   Partly Cloudy
4:21 PM 75.9 °F 62.1 °F 62% 30.07 in 10.0 mi North - - N/A   Mostly Cloudy
4:53 PM 77.0 °F 62.1 °F 60% 30.07 in 10.0 mi ENE 12.7 mph - N/A   Mostly Cloudy
5:32 PM 75.9 °F 62.1 °F 62% 30.08 in 10.0 mi ENE 12.7 mph - N/A   Scattered Clouds
5:53 PM 75.0 °F 62.1 °F 64% 30.09 in 10.0 mi ENE 10.4 mph - N/A   Scattered Clouds
6:53 PM 73.0 °F 62.1 °F 68% 30.09 in 10.0 mi NE 12.7 mph - N/A   Scattered Clouds
7:53 PM 73.0 °F 62.1 °F 68% 30.08 in 10.0 mi NE 11.5 mph - N/A   Partly Cloudy
8:53 PM 73.0 °F 62.1 °F 68% 30.08 in 10.0 mi ENE 11.5 mph - N/A   Partly Cloudy
9:53 PM 73.0 °F 61.0 °F 66% 30.09 in 10.0 mi ENE 13.8 mph - N/A   Clear
10:53 PM 73.0 °F 59.0 °F 61% 30.10 in 10.0 mi East 12.7 mph - N/A   Clear
11:53 PM 73.0 °F 61.0 °F 66% 30.10 in 10.0 mi ENE 10.4 mph - N/A   Clear